Regional Weather Roundup
Issued by NWS

Home | Current Version | Previous Version | Text Only | Print | Product List | Glossary Off
Versions: 1 2 3 4 5 6 7 8 9 10 11 12 13 14 15 16 17 18 19 20 21 22 23 24 25 26 27 28 29 30 31 32 33 34 35 36 37 38 39 40 41 42 43 44 45 46 47 48 49 50

588
ASUS43 KLSX 280907
RWRMO
WEATHER SUMMARY FOR MISSOURI
NATIONAL WEATHER SERVICE SPRINGFIELD MO
400 AM CDT SUN MAY 28 2017

NOTE: "FAIR" INDICATES FEW OR NO CLOUDS BELOW 12,000 FEET WITH NO
       SIGNIFICANT WEATHER AND/OR OBSTRUCTIONS TO VISIBILITY.
       CURRENT SKY AND/OR WEATHER CONDITIONS ARE NOT AVAILABLE FOR
       CHILLICOTHE AND FARMINGTON.

MOZ001>031-035>038-043-044-053-054-281000-
...NORTHERN AND WESTERN MISSOURI...

CITY           SKY/WX    TMP DP  RH WIND       PRES   REMARKS
KANSAS CTY INT CLOUDY    60  58  92 NW9       29.88S
KANSAS C DTWN  CLOUDY    63  60  90 NW7       29.87S
LEE`S SUMMIT   CLOUDY    61  60  97 NW7       29.87S
ST JOSEPH      CLEAR     59  58  96 NW7       29.89F
CHILLICOTHE      N/A     59  56  89 CALM      29.85F
KIRKSVILLE     CLOUDY    59  57  93 NW7       29.82R

$$
MOZ066>068-077>081-088>096-101>105-281000-
...SOUTHWEST MISSOURI...

CITY           SKY/WX    TMP DP  RH WIND       PRES   REMARKS
SPRINGFIELD    CLOUDY    64  63  96 NW10      29.83R
JOPLIN         CLOUDY    64  62  93 N7        29.83F
BRANSON        CLOUDY    63  63 100 CALM      29.83R

$$
MOZ032>034-039>042-045>050-055>058-069>072-281000-
...CENTRAL MISSOURI...

CITY           SKY/WX    TMP DP  RH WIND       PRES   REMARKS
COLUMBIA       FOG       58  58 100 S6        29.79R VSB 3/4
JEFFERSON CITY CLOUDY    62  59  90 VRB3      29.80R
ROLLA          CLOUDY    58  58 100 CALM      29.78F FOG
SEDALIA        CLOUDY    63  63 100 NW8       29.83R
WHITEMAN AFB   CLOUDY    62  62 100 N10       29.81F
WARRENSBURG    CLOUDY    61  59  94 NW7       29.84S
OSAGE BEACH    FOG       59  59 100 CALM      29.80F VSB 1/4

$$
MOZ051-052-059>065-281000-
...EAST CENTRAL MISSOURI...

CITY           SKY/WX    TMP DP  RH WIND       PRES   REMARKS
ST LOUIS INTL  CLOUDY    65  60  84 W6        29.76R
SPIRIT OF STL  CLOUDY    62  61  96 W5        29.76R
ST CHARLES     CLOUDY    63  63 100 S7        29.75R

$$
MOZ072>076-082>087-097>100-106>115-281000-
...SOUTH CENTRAL AND SOUTHEAST MISSOURI...

CITY           SKY/WX    TMP DP  RH WIND       PRES   REMARKS
CAPE GIRARDEAU CLOUDY    66  61  84 NW6       29.82R
POPLAR BLUFF   CLOUDY    64  63  96 S10         N/A
WEST PLAINS    CLOUDY    63  61  93 SW3       29.83

$$




USA.gov is the U.S. government's official web portal to all federal, state and local government web resources and services.